This is the latest recevied weather packets stored in our database for station/object PY2RMF-10. If no packets are shown the sender has not sent any weather packets the latest 10 day(s).
| Time | Temp. | Humidity | Pressure | Rain* | Wind** | Luminosity | Snow |
|---|---|---|---|---|---|---|---|
| 1777776511 | 20.56° C | 74% | 1007 hPa | - | - | - | - |
| 1777774711 | 20.56° C | 89% | 1007 hPa | - | - | - | - |
| 1777772911 | 20.56° C | 77% | 1007 hPa | - | - | - | - |
| 1777771112 | 21.11° C | 83% | 1007 hPa | - | - | - | - |
| 1777769311 | 21.11° C | 78% | 1007 hPa | - | - | - | - |
| 1777767511 | 21.11° C | 92% | 1007 hPa | - | - | - | - |
| 1777765711 | 21.67° C | 83% | 1007 hPa | - | - | - | - |
| 1777763911 | 21.11° C | 88% | 1006 hPa | - | - | - | - |
| 1777762111 | 21.67° C | 86% | 1007 hPa | - | - | - | - |
| 1777760312 | 22.22° C | 82% | 1007 hPa | - | - | - | - |
| 1777758511 | 23.33° C | 66% | 1006 hPa | - | - | - | - |
| 1777756711 | 23.89° C | 62% | 1006 hPa | - | - | - | - |
| 1777754911 | 25.56° C | 73% | 1005 hPa | - | - | - | - |
| 1777753111 | 27.78° C | 51% | 1005 hPa | - | - | - | - |
| 1777751312 | 27.78° C | 47% | 1005 hPa | - | - | - | - |
| 1777749511 | 29.44° C | 43% | 1004 hPa | - | - | - | - |
| 1777747711 | 30.56° C | 41% | 1004 hPa | - | - | - | - |
| 1777745912 | 31.67° C | 38% | 1004 hPa | - | - | - | - |
| 1777744111 | 31.67° C | 39% | 1004 hPa | - | - | - | - |
| 1777742311 | 32.78° C | 36% | 1004 hPa | - | - | - | - |
| 1777740512 | 32.78° C | 37% | 1004 hPa | - | - | - | - |
| 1777738711 | 32.78° C | 38% | 1005 hPa | - | - | - | - |
| 1777736911 | 28.33° C | 47% | 1005 hPa | - | - | - | - |
| 1777735111 | 28.89° C | 44% | 1006 hPa | - | - | - | - |
| 1777733311 | 29.44° C | 43% | 1006 hPa | - | - | - | - |
* Rain since midnight (hover to see other rain measurements)
** Current wind speed in m/s (hover to see current wind gust speed)